Regional Weather Roundup
Issued by NWS Albany, NY

Home | Current Version | Previous Version | Text Only | Print | Product List | Glossary On
Versions: 1 2 3 4 5 6 7 8 9 10 11 12 13 14 15 16 17 18 19 20 21 22 23 24 25 26 27 28 29 30 31 32 33 34 35 36 37 38 39 40 41 42 43 44 45 46 47 48 49 50
970
ASUS41 KALY 291810
RWRALY

NEW YORK STATE HOURLY WEATHER ROUNDUP
NATIONAL WEATHER SERVICE ALBANY NY
200 PM EDT SAT APR 29 2017

NOTE: "FAIR" INDICATES FEW OR NO CLOUDS BELOW 12,000 FEET WITH NO
SIGNIFICANT WEATHER AND/OR NO OBSTRUCTIONS TO VISIBILITY.

NYZ032-033-038>043-046>054-057>066-NYZ062>081-082-084-291900-
EAST


CITY           SKY/WX    TMP DP  RH WIND       PRES   REMARKS
ALBANY         CLOUDY    69  52  54 NW14G23   29.97F
GLENS FALLS    CLOUDY    71  49  45 W6        29.92S
POUGHKEEPSIE   CLOUDY    79  59  50 W10       29.91F
NEWBURGH       PTSUNNY   79  63  57 W14       29.95F
MONTGOMERY     MOSUNNY   80  59  48 W14G20    29.93F
WHITE PLAINS   CLOUDY    80  61  52 W12       29.94S
ISLIP          PTSUNNY   79  64  60 SW13      29.92F
NEW YORK CITY  CLOUDY    85  60  42 W12       29.93F
CENTRAL PARK   CLOUDY    82  61  48 VRB7      29.97S
$$

NYZ005>009-017-018-044>046-055-056-291900-
CENTRAL


CITY           SKY/WX    TMP DP  RH WIND       PRES   REMARKS
FULTON         CLOUDY    52  40  63 W14       30.07R
SYRACUSE       CLOUDY    59  48  67 W12       30.05R
ROME           CLOUDY    60  49  66 W9        30.04R
ELMIRA         CLOUDY    59  52  77 E7        30.09R
BINGHAMTON     CLOUDY    60  52  74 N10       30.05R
MONTICELLO     CLOUDY    73  55  53 W14G23    30.00R
$$

NYZ026>034-041>043-087-291900-
NORTH


CITY           SKY/WX    TMP DP  RH WIND       PRES   REMARKS
WATERTOWN      CLOUDY    55  43  63 SW17G26   30.02F
FORT DRUM      NOT AVBL
OGDENSBURG     FAIR      67  48  50 SW12G25   29.94F
MASSENA        MOSUNNY   69  44  40 W17G29    29.92F
SARANAC LAKE   CLOUDY    62  44  51 W16G24    29.91F
PLATTSBURGH    CLOUDY    73  42  32 W8G20     29.85S
$$

NYZ001>004-010>016-019>021-085-291900-
WEST


CITY           SKY/WX    TMP DP  RH WIND       PRES   REMARKS
NIAGARA FALLS  CLOUDY    54  36  50 NW7       30.15R
BUFFALO        CLOUDY    52  36  54 NW9       30.15R
DUNKIRK        CLOUDY    49  43  80 N6        30.18R
JAMESTOWN      CLOUDY    52  46  82 SW6       30.17R
WELLSVILLE     LGT RAIN  54  52  93 NW10      30.15R FOG
ROCHESTER      CLOUDY    58  43  57 W15       30.12R
PENN YAN       CLOUDY    59  47  64 W6        30.09R
$$

             KEY
       WCI = WIND CHILL INDEX
       VSB = VISIBILITY
       HX  = HEAT INDEX
$$




USA.gov is the U.S. government's official web portal to all federal, state and local government web resources and services.